Flag for Italy Weather past 2 weeks in Cagliari, Italy

Now
59 °F

Passing clouds.


Feels Like: 56 °F
Forecast: 48 / 57 °F
Wind: 16 mph from West

Location: Cagliari / Elmas

Current Time: Jan 30, 2015 at 8:14:59 AM

Latest Report: Jan 30, 2015 at 7:20 AM


Visibility: N/A

Pressure: 29.27 "Hg

Humidity: 82%

Dew point: 54 °F

Location of CagliariLocation

Historic Weather in Cagliari — Graph

°F

Cagliari temperature yesterday

Maximum temperature yesterday: 57 °F (at 9:20 PM)
Minimum temperature yesterday: 36 °F (at 2:20 AM)
Average temperature yesterday: 48 °F

Past Weeks' High & Low Weather Summary

 TemperatureHumidityPressure
High66 °F (Jan 16, 12:20 PM)100% (Jan 15, 6:20 AM)30.27 "Hg (Jan 15, 6:20 AM)
Low34 °F (Jan 19, 6:20 AM)38% (Jan 28, 2:50 PM)29.30 "Hg (Jan 30, 5:50 AM)
Average49 °F86%29.90 "Hg
* Reported Jan 15 6:20 AM — Jan 30 6:50 AM, Cagliari, Weather by CustomWeather, © 2014

Note: Actual official high and low records may vary slightly from our data, if they occured in-between our weather recording intervals... More about our weather records

Advertising

Cagliari weather history for previous 24 hours

 ConditionsComfort  
Time TempWeatherWind HumidityBarometerVisibility
6:50 AM
Jan 30
59 °FPassing clouds.18 mph82%29.30 "HgN/A
6:20 AM59 °FLight rain. Passing clouds.20 mph82%29.30 "HgN/A
5:50 AM59 °FLight rain. Passing clouds.24 mph82%29.30 "HgN/A
5:20 AM59 °FLight rain. Passing clouds.16 mph82%29.33 "HgN/A
4:50 AM59 °FLight rain. Passing clouds.15 mph82%29.36 "HgN/A
4:20 AM57 °FLight rain. Passing clouds.14 mph88%29.39 "HgN/A
3:50 AM57 °FPassing clouds.16 mph88%29.39 "HgN/A
3:20 AM59 °FPassing clouds.17 mph77%29.42 "HgN/A
2:50 AM59 °FPassing clouds.12 mph77%29.42 "HgN/A
2:20 AM57 °FPassing clouds.14 mph82%29.45 "HgN/A
1:50 AM59 °FPassing clouds.16 mph72%29.45 "HgN/A
1:20 AM57 °FPassing clouds.16 mph77%29.47 "HgN/A
12:50 AM57 °FPassing clouds.8 mph77%29.50 "HgN/A
12:20 AM57 °FPassing clouds.14 mph77%29.50 "HgN/A
11:50 PM
Jan 29
57 °FPassing clouds.15 mph77%29.53 "HgN/A
11:20 PM57 °FPassing clouds.15 mph77%29.53 "HgN/A
10:50 PM57 °FPassing clouds.16 mph77%29.56 "HgN/A
10:20 PM57 °FPassing clouds.15 mph77%29.59 "HgN/A
9:50 PM57 °FPassing clouds.13 mph77%29.62 "HgN/A
9:20 PM57 °FPassing clouds.15 mph72%29.62 "HgN/A
8:50 PM55 °FPassing clouds.13 mph77%29.62 "HgN/A
8:20 PM55 °FPassing clouds.14 mph77%29.62 "HgN/A
7:50 PM55 °FPassing clouds.12 mph77%29.65 "HgN/A
7:20 PM55 °FPassing clouds.8 mph77%29.65 "HgN/A
6:50 PM55 °FPassing clouds.14 mph77%29.65 "HgN/A
6:20 PM55 °FPassing clouds.13 mph77%29.68 "HgN/A
5:20 PM55 °FPartly sunny.12 mph82%29.71 "HgN/A
4:50 PM55 °FPartly sunny.9 mph82%29.74 "HgN/A
4:20 PM55 °FPartly sunny.10 mph82%29.74 "HgN/A
3:50 PM55 °FPassing clouds.12 mph82%29.74 "HgN/A
3:20 PM55 °FLight rain. Scattered clouds.8 mph88%29.77 "HgN/A
2:50 PM55 °FLight rain. Scattered clouds.10 mph88%29.77 "HgN/A
2:20 PM55 °FLight rain. Scattered clouds.12 mph88%29.80 "HgN/A
1:50 PM55 °FLight rain. Partly sunny.15 mph88%29.80 "HgN/A
1:20 PM55 °FLight rain. Partly sunny.14 mph88%29.83 "HgN/A
12:50 PM54 °FBroken clouds.16 mph88%29.83 "HgN/A
12:20 PM54 °FBroken clouds.6 mph88%29.83 "HgN/A
11:50 AM50 °FBroken clouds.3 mph94%29.86 "HgN/A
11:20 AM50 °FPartly sunny.5 mph94%29.86 "HgN/A
10:50 AM48 °FPartly sunny.5 mph94%29.86 "HgN/A
10:20 AM46 °FPartly sunny.3 mph100%29.89 "HgN/A
9:50 AM46 °FLight rain. Partly sunny.3 mph100%29.89 "HgN/A
9:20 AM45 °FLight rain. Partly sunny.2 mph93%29.89 "HgN/A
8:50 AM43 °FLight rain. Partly sunny.1 mph93%29.89 "HgN/A
8:20 AM41 °FScattered clouds.1 mph93%29.89 "HgN/A
Weather by CustomWeather, © 2014

See weather overviewHow to use our weather pages